Home   Weather   Rostock   Past weeks
Flag for Germany

Past Weather in Rostock, Mecklenburg-Western Pomerania, Germany — Yesterday and Last 2 Weeks

Now
46 °F

Sprinkles. Partly cloudy.


Feels Like: 41 °F
Forecast: 58 / 47 °F
Wind: 13 mph from Northwest

Location: Laage

Current Time: Sep 18, 2019 at 10:15:10 pm

Latest Report: Sep 18, 2019 at 9:20 pm


Visibility: 6 mi

Pressure: 30.18 "Hg

Humidity: 87%

Dew Point: 43 °F

Location of RostockLocation

Past Weather in Rostock — Graph

°F

Rostock Temperature Yesterday

Maximum temperature yesterday: 55 °F (at 11:20 am)
Minimum temperature yesterday: 46 °F (at 7:20 pm)
Average temperature yesterday: 52 °F

High & Low Weather Summary for the Past Weeks

 TemperatureHumidityPressure
High70 °F (Sep 4, 6:20 pm)100% (Sep 4, 3:20 am)30.54 "Hg (Sep 4, 3:20 am)
Low46 °F (Sep 6, 7:20 am)46% (Sep 11, 4:20 pm)29.77 "Hg (Sep 10, 1:20 am)
Average57 °F77%30.06 "Hg
* Reported Sep 3 8:20 pm — Sep 18 8:20 pm, Rostock. Weather by CustomWeather, © 2019

Note: Actual official high and low records may vary slightly from our data, if they occured in-between our weather recording intervals... More about our weather records

Advertising

Rostock Weather History for the Previous 24 Hours

Scroll right to see more
 ConditionsComfort  
Time TempWeatherWind HumidityBarometerVisibility
8:20 pm
Wed, Sep 18
50 °FScattered showers. Passing clouds.12 mph82%30.15 "HgN/A
7:20 pm50 °FScattered showers. Passing clouds.12 mph82%30.15 "HgN/A
7:04 pm50 °FSprinkles. Partly sunny.14 mph76%30.15 "HgN/A
6:20 pm54 °FPassing clouds.15 mph67%30.12 "HgN/A
5:20 pm54 °FScattered showers. Passing clouds.14 mph72%30.15 "HgN/A
4:31 pm50 °FScattered showers. Broken clouds.10 mph82%30.15 "HgN/A
3:20 pm57 °FScattered clouds.16 mph55%30.12 "HgN/A
2:20 pm55 °FScattered clouds.21 mph59%30.12 "HgN/A
1:20 pm57 °FScattered clouds.23 mph55%30.12 "HgN/A
12:20 pm55 °FPartly sunny.22 mph59%30.12 "HgN/A
11:20 am55 °FScattered clouds.25 mph55%30.09 "HgN/A
10:20 am54 °FPartly sunny.23 mph67%30.09 "HgN/A
9:20 am54 °FPartly sunny.20 mph72%30.09 "HgN/A
8:20 am50 °FPartly sunny.12 mph88%30.07 "HgN/A
7:20 am46 °FScattered clouds.8 mph93%30.07 "HgN/A
6:20 am46 °FPassing clouds.9 mph93%30.04 "HgN/A
5:20 am46 °FPassing clouds.8 mph87%30.04 "HgN/A
4:20 am48 °FCool.10 mph82%30.04 "HgN/A
3:20 am48 °FCool.9 mph82%30.01 "HgN/A
2:20 am48 °FCool.13 mph76%30.01 "HgN/A
1:20 am48 °FPassing clouds.16 mph76%29.98 "HgN/A
12:20 am46 °FPassing clouds.10 mph82%29.98 "HgN/A
11:20 pm
Tue, Sep 17
50 °FPassing clouds.15 mph71%29.95 "HgN/A
10:20 pm50 °FPassing clouds.16 mph71%29.92 "HgN/A
Weather by CustomWeather, © 2019

See weather overview